Hutchinson, MN

8:20 PM CST on February 07, 2016 (GMT -0600)
Hutchinson Municipal-Butler

Weather History for KHCD - August, 2012

Change the Weather History Date:

Sunday, August 19, 2012

  Actual Average Record
Temperature  
Mean Temperature 64 °F -  
Max Temperature 75 °F 79 °F 94 °F (1976)
Min Temperature 51 °F 57 °F 39 °F (2004)
Growing Degree Days 14 (Base 50)    
Moisture  
Dew Point 55 °F    
Average Humidity 77    
Maximum Humidity 99    
Minimum Humidity 47    
Precipitation  
Precipitation 0.00 in - - ()
Sea Level Pressure  
Sea Level Pressure 30.01 in    
Wind  
Wind Speed 4 mph (NNE)    
Max Wind Speed 9 mph    
Max Gust Speed 16 mph    
Visibility 10 miles    
Events Rain    
Averages and records for this station are not official NWS values.
T = Trace of Precipitation, MM = Missing Value Source: NWS Daily Summary

Daily Weather History Graph

Daily Weather History Graph

Search for Another Location

Airport or City:

Trip Planner

Search our weather history database for the weather conditions in past years. The results will help you decide how hot, cold, wet, or windy it might be!

Date:

Astronomy

Aug. 19, 2012 Rise Set
Actual Time 6:24 AM CDT 8:16 PM CDT
Civil Twilight 5:53 AM CDT 8:47 PM CDT
Nautical Twilight 5:15 AM CDT 9:25 PM CDT
Astronomical Twilight 4:33 AM CDT 10:07 PM CDT
Moon 8:49 AM CDT (8/19) 8:55 PM CDT (8/19)
Length of Visible Light 14h 53m
Length of Day
13h 51m
Waxing Crescent, 5% of the Moon is Illuminated
Aug 19
Waxing Crescent
Aug 24
First Quarter
Aug 31
Full
Sep 8
Last Quarter
Sep 15
New

Hourly Weather History & Observations

Time (CDT) Temp. Dew Point Humidity Pressure Visibility Wind Dir Wind Speed Gust Speed Precip Events Conditions
12:09 AM 61.7 °F 55.0 °F 79% 30.00 in 10.0 mi East 8.1 mph - N/A   Mostly Cloudy
12:29 AM 60.1 °F 55.0 °F 83% 30.00 in 10.0 mi East 4.6 mph - N/A   Clear
12:46 AM 59.2 °F 55.6 °F 88% 30.00 in 10.0 mi SE 3.5 mph - N/A   Clear
1:08 AM 58.1 °F 56.1 °F 93% 30.00 in 10.0 mi Calm Calm - N/A   Clear
1:29 AM 56.7 °F 55.0 °F 94% 29.99 in 10.0 mi Calm Calm - N/A   Clear
1:49 AM 56.7 °F 55.6 °F 96% 29.98 in 10.0 mi ESE 5.8 mph - N/A   Clear
2:09 AM 55.6 °F 54.7 °F 97% 29.98 in 10.0 mi SE 4.6 mph - N/A   Clear
2:30 AM 55.4 °F 54.5 °F 97% 29.98 in 10.0 mi Calm Calm - N/A   Clear
2:50 AM 55.4 °F 54.5 °F 97% 29.98 in 10.0 mi Calm Calm - N/A   Mostly Cloudy
3:09 AM 56.7 °F 55.8 °F 97% 29.98 in 10.0 mi South 4.6 mph - N/A Rain Rain
3:30 AM 56.7 °F 55.8 °F 97% 29.98 in 10.0 mi South 3.5 mph - N/A   Scattered Clouds
3:49 AM 56.7 °F 55.8 °F 97% 29.98 in 10.0 mi SW 4.6 mph - N/A   Scattered Clouds
4:09 AM 56.7 °F 55.0 °F 94% 29.98 in 10.0 mi WNW 3.5 mph - N/A   Scattered Clouds
4:30 AM 56.7 °F 55.4 °F 96% 29.98 in 10.0 mi Calm Calm - N/A   Mostly Cloudy
4:50 AM 54.1 °F 53.6 °F 98% 29.99 in 10.0 mi NW 3.5 mph - N/A   Mostly Cloudy
5:09 AM 56.7 °F 56.3 °F 99% 29.99 in 10.0 mi NNW 5.8 mph - N/A   Mostly Cloudy
5:28 AM 56.7 °F 56.3 °F 99% 29.99 in 10.0 mi NNW 4.6 mph - N/A   Mostly Cloudy
5:49 AM 56.7 °F 56.3 °F 99% 30.00 in 10.0 mi North 4.6 mph - N/A   Scattered Clouds
6:09 AM 56.7 °F 55.8 °F 97% 30.00 in 10.0 mi Calm Calm - N/A   Clear
6:30 AM 56.1 °F 55.4 °F 97% 30.01 in 10.0 mi North 3.5 mph - N/A   Clear
6:50 AM 55.6 °F 55.0 °F 98% 30.02 in 10.0 mi North 3.5 mph - N/A   Clear
7:10 AM 56.8 °F 55.9 °F 97% 30.02 in 10.0 mi North 5.8 mph - N/A   Clear
7:29 AM 59.2 °F 56.7 °F 91% 30.03 in 10.0 mi North 6.9 mph - N/A   Clear
7:50 AM 59.5 °F 56.1 °F 88% 30.03 in 10.0 mi North 4.6 mph - N/A   Clear
8:30 AM 62.1 °F 57.0 °F 84% 30.04 in 10.0 mi North 5.8 mph - N/A   Clear
8:50 AM 64.4 °F 58.8 °F 82% 30.05 in 10.0 mi NNW 5.8 mph - N/A   Clear
9:09 AM 64.4 °F 57.6 °F 78% 30.04 in 10.0 mi NNW 4.6 mph - N/A   Clear
9:26 AM 66.7 °F 59.4 °F 77% 30.04 in 10.0 mi NW 4.6 mph - N/A   Clear
11:24 AM 71.1 °F 57.0 °F 61% 30.05 in 10.0 mi NNW 6.9 mph - N/A   Scattered Clouds
11:30 AM 70.7 °F 57.0 °F 62% 30.05 in 10.0 mi NNW 6.9 mph - N/A   Scattered Clouds
11:49 AM 72.1 °F 57.7 °F 60% 30.05 in 10.0 mi North 8.1 mph - N/A   Scattered Clouds
12:10 PM 70.9 °F 57.0 °F 61% 30.05 in 10.0 mi NNE 4.6 mph - N/A   Scattered Clouds
12:29 PM 73.2 °F 58.5 °F 60% 30.05 in 10.0 mi NNE 8.1 mph - N/A   Scattered Clouds
12:50 PM 74.1 °F 57.4 °F 56% 30.04 in 10.0 mi NNE 3.5 mph - N/A   Mostly Cloudy
1:09 PM 74.3 °F 57.6 °F 56% 30.04 in 10.0 mi NNE 9.2 mph - N/A   Scattered Clouds
1:30 PM 74.3 °F 56.8 °F 54% 30.04 in 10.0 mi NE 8.1 mph - N/A   Scattered Clouds
1:50 PM 74.3 °F 55.9 °F 53% 30.03 in 10.0 mi NNW 5.8 mph - N/A   Mostly Cloudy
2:09 PM 74.3 °F 55.9 °F 53% 30.03 in 10.0 mi NW 3.5 mph - N/A   Scattered Clouds
2:29 PM 75.0 °F 55.9 °F 51% 30.02 in 10.0 mi NE 5.8 mph - N/A   Scattered Clouds
2:49 PM 73.8 °F 57.6 °F 57% 30.02 in 10.0 mi North 6.9 mph - N/A   Mostly Cloudy
3:09 PM 74.3 °F 56.5 °F 54% 30.02 in 10.0 mi NE 9.2 mph 16.1 mph N/A   Mostly Cloudy
3:30 PM 74.3 °F 55.4 °F 52% 30.01 in 10.0 mi NNE 6.9 mph - N/A   Scattered Clouds
3:49 PM 74.3 °F 55.6 °F 52% 30.01 in 10.0 mi North 3.5 mph - N/A   Mostly Cloudy
4:09 PM 75.0 °F 55.9 °F 51% 30.01 in 10.0 mi NE 8.1 mph - N/A   Scattered Clouds
4:30 PM 74.3 °F 54.5 °F 50% 30.00 in 10.0 mi North 8.1 mph - N/A   Scattered Clouds
4:49 PM 74.5 °F 54.9 °F 50% 30.00 in 10.0 mi NNW 4.6 mph - N/A   Clear
5:10 PM 75.4 °F 53.8 °F 47% 30.00 in 10.0 mi North 6.9 mph - N/A   Scattered Clouds
5:49 PM 74.3 °F 54.0 °F 49% 29.99 in 10.0 mi NNE 4.6 mph - N/A   Clear
6:10 PM 74.3 °F 54.0 °F 49% 29.99 in 10.0 mi North 6.9 mph - N/A   Clear
6:50 PM 74.3 °F 54.3 °F 50% 29.99 in 10.0 mi NE 3.5 mph - N/A   Scattered Clouds
7:10 PM 74.3 °F 54.5 °F 50% 29.99 in 10.0 mi NE 4.6 mph - N/A   Scattered Clouds
7:29 PM 71.4 °F 54.1 °F 54% 29.99 in 10.0 mi NE 4.6 mph - N/A   Clear
7:49 PM 69.3 °F 53.4 °F 57% 29.99 in 10.0 mi ENE 3.5 mph - N/A   Clear
8:30 PM 62.2 °F 53.1 °F 72% 30.00 in 10.0 mi Calm Calm - N/A   Clear
8:49 PM 59.4 °F 54.5 °F 84% 30.01 in 10.0 mi Calm Calm - N/A   Clear
9:10 PM 56.7 °F 54.7 °F 93% 30.01 in 10.0 mi Calm Calm - N/A   Clear
9:29 PM 56.7 °F 55.4 °F 96% 30.02 in 10.0 mi Calm Calm - N/A   Clear
9:49 PM 56.1 °F 54.3 °F 94% 30.02 in 10.0 mi Calm Calm - N/A   Clear
10:09 PM 54.1 °F 53.2 °F 97% 30.02 in 10.0 mi Calm Calm - N/A   Clear
10:29 PM 54.1 °F 53.2 °F 97% 30.02 in 10.0 mi Calm Calm - N/A   Clear
10:50 PM 54.1 °F 53.2 °F 97% 30.02 in 10.0 mi Calm Calm - N/A   Clear
11:09 PM 54.1 °F 52.5 °F 94% 30.02 in 10.0 mi Calm Calm - N/A   Clear
11:50 PM 51.8 °F 50.5 °F 95% 30.02 in 10.0 mi Calm Calm - N/A   Clear